Simultaneous Nadir Overpasses (SNOs) Predictions

Prediction of SNOs between GOES-14 and NPP Satellite Orbit:

Table of predicted SNOs for the next 14.0 days since TLE Epoch: 9/14/2024
Index Date Time (GOES-14) GOES-14 Lat,Lon NPP Lat,Lon Distance(km) Time Diff (sec)
1 09/15/2024 08:51:58 -0.03,-108.43 0.63,-111.37 335.40 80
2 09/16/2024 08:30:31 -0.03,-108.43 -0.38,-106.83 181.85 80
3 09/17/2024 20:52:24 0.03,-108.37 -0.82,-112.12 427.56 80
4 09/18/2024 20:36:18 0.03,-108.38 0.21,-107.58 90.42 80
5 09/21/2024 08:36:36 -0.03,-108.45 -0.04,-108.30 16.48 80
6 09/23/2024 20:39:42 0.03,-108.38 -0.12,-109.05 76.13 80
7 09/24/2024 20:23:34 0.03,-108.39 0.87,-104.51 441.62 80
8 09/26/2024 08:45:19 -0.04,-108.46 0.23,-109.78 149.83 80
9 09/27/2024 08:23:52 -0.04,-108.46 -0.77,-105.23 367.70 80
